Location: All Nations United Methodist Church
(33.0215°N, 96.7483°W)
Time: 15:38:22
(UTC+00:00)

Cosmos 2278 Rocket - Pass Details

Date: 24 January 2021
Orbit: 840 x 847 km, 71.0° (Epoch: 07 March)

Event Time Altitude Azimuth Distance (km) Brightness Sun altitude
Exits shadow 12:45:33 - 314° (NW) 2,674 4.3 -9.0°
Reaches altitude 10° 12:46:13 10° 310° (NW) 2,470 4.1 -8.8°
Maximum altitude 12:50:35 23° 259° (W) 1,710 3.3 -8.0°
Drops below altitude 10° 12:54:56 10° 208° (SSW) 2,456 4.5 -7.1°
Sets 12:57:50 0° 194° (SSW) 3,386 5.4 -6.5°
